Voltar ao catálogo

NINGXIA-1 8

AtivoCiênciaLEO
NORAD 49020·PAYLOAD·🇨🇳 China

Lançado Jul 9, 2021 de Taiyuan Satellite Launch Center

Loading…

Próximas Passagens (próximas 24 horas)

TLE

AtualizadoSource: Space-Track

Época: Sep 14, 2026, 14:48 UTC

1 49020U 21064C   26257.61698220 -.00000187  00000-0 -31869-4 0  9993
2 49020  44.9940 181.9768 0008758 312.0856  47.9235 14.08546214266830

Acompanhe NINGXIA-1 8 em tempo real com AllMySat

Download on the App Store